YAOGAN-30 N

导读 | 星芒AI

YAOGAN-30 N 是中国研制的一颗遥感卫星,属于遥感三十二号系列,主要用于科学实验、国土资源普查、农作物估产及防灾减灾等领域。该卫星具备高分辨率对地观测能力,能够提供高质量的遥感数据,支持国家在环境监测、城市规划和国防建设等方面的应用。其发射进一步增强了中国在遥感技术领域的自主创新能力,提升了空间信息获取与应用水平。

基本信息
目录编号:
44449
目录名称:
YAOGAN-30 N
国际标识:
2019-045A
轨道中心:
EARTH
卫星名称:
YAOGAN-30 N
卫星全名:
--
卫星状态:
在轨 (已飞行2293 天)
发射日期:
2019-07-26 UTC
国别 :
中国 (CN)
星等 :
--
轨道信息
数据来源 国际轨道数据 AOE轨道数据
星历时间 2025-11-04T21:42:27+0800
7小时前
查看轨道信息
2025-11-04T08:00:00+0800
21小时前
查看轨道信息
半长轴 6941.711km 6941.736km
偏心率 0.0003683 0.0003386
轨道倾角 34.994° 34.994°
近地点辐角 134.824° 129.674°
升交点赤经 257.692° 261.166°
平近点角 225.277° 19.003°
近地点 561.019km 561.25km
远地点 566.133km 565.952km
周期 95.931分钟 95.932分钟
每日圈数 15.010771 15.01069
详细信息
使用方式:
暂无
2D轨道图
3D轨道图
轨道高度分析图
轨道倾角分析图
轨道综合分析图
查看轨道综合分析图